Location: Newark
(51.3318°N, 0.0053°E)
Time: 08:51:39
(UTC+00:00)

Sep Motor Cover - Pass Details

Date: 08 December 2022
Orbit: 663 x 834 km, 71.0° (Epoch: 05 February)

Event Time Altitude Azimuth Distance (km) Brightness Sun altitude
Rises 16:31:04 0° 266° (W) 3,134 11.0 -5.9°
Reaches altitude 10° 16:34:10 10° 286° (WNW) 2,250 9.6 -6.3°
Maximum altitude 16:37:32 17° 328° (NNW) 1,833 8.5 -6.8°
Drops below altitude 10° 16:41:02 10° 9° (N) 2,333 8.7 -7.3°
Enters shadow 16:43:31 - 25° (NNE) 3,041 9.1 -7.6°
